RH
15 15 15 15 16 16 15 14 13 13 14 15 16 14 13 12 12 15 14 15 16 17 18 17 21 21 21 22 27 27 33 40 39 30 22 21 13 17 15 18 21 47 56 57 52
14 16 16 17 18 18 18 17 13 12 13 14 15 15 14 13 14 18 16 17 18 19 21 20 24 27 27 35 37 40 39 38 38 37 39 34 24 18 18 18 43 36 62 67 59
12 14 16 16 17 18 19 19 15 12 12 14 15 15 15 16 17 18 18 20 19 21 23 23 26 31 32 48 64 70 62 48 46 35 36 54 30 28 30 26 40 45 55 77 70
10 11 14 15 16 17 18 19 16 11 12 14 14 16 17 19 20 20 22 24 22 23 25 27 36 40 77 99 86 91 88 91 84 49 49 60 44 29 42 33 40 52 60 69 78
10 10 10 13 14 15 16 17 16 11 12 13 14 16 18 21 21 22 26 26 25 28 29 31 41 72 94 96 87 88 82 83 91 86 54 61 51 29 28 40 50 54 54 63 76
13 12 10 10 13 14 15 16 16 11 11 13 14 16 18 21 24 25 28 31 30 36 36 38 45 74 82 97 97 78 72 83 78 82 64 68 50 42 22 36 43 51 61 56 70
15 16 16 11 10 14 14 14 16 14 11 12 14 16 20 22 25 26 30 32 34 35 43 41 52 61 78 94 92 90 87 80 67 69 77 79 67 26 20 27 35 40 50 52 55
12 16 19 17 11 10 13 14 14 15 13 13 13 15 20 22 25 28 30 34 36 38 42 41 51 63 74 89 84 85 83 81 60 84 91 80 58 47 51 25 18 32 34 26 50
12 13 16 20 17 11 11 13 13 15 14 14 15 16 22 23 25 28 31 34 34 35 38 46 45 52 80 99 96 84 91 77 70 74 90 95 91 69 51 55 22 13 15 13 46
17 15 13 16 20 16 14 12 13 12 14 16 17 16 20 21 24 28 33 34 34 37 38 44 53 68 77 91 96 94 99 98 87 71 85 84 82 71 50 58 54 33 13 9 37
18 18 16 14 18 19 16 14 15 15 14 16 16 17 22 23 25 26 33 33 35 35 39 49 59 70 89 91 99 84 88 93 90 66 72 53 56 56 55 48 43 42 33 30 28
10 17 18 17 15 18 18 16 15 16 14 16 16 20 23 24 24 26 30 34 38 38 46 49 53 67 73 96 98 88 82 85 83 69 82 83 75 50 42 43 42 36 34 36 30
7 8 15 18 17 18 19 17 17 17 17 17 18 21 22 22 24 28 31 34 38 43 55 59 52 65 83 78 95 91 96 85 90 82 77 72 61 45 36 46 48 38 33 36 41
5 6 7 14 16 17 19 20 20 20 17 17 18 27 24 21 27 27 33 37 42 49 47 49 52 74 84 79 82 84 80 97 91 92 98 82 91 56 44 45 49 48 38 29 40
6 5 6 6 12 17 19 23 22 24 41 20 18 19 24 24 26 31 35 37 43 44 50 41 58 73 77 78 74 69 90 97 96 98 96 88 96 45 39 47 40 36 34 36 25
10 6 5 5 7 15 20 25 23 32 32 24 22 21 25 24 26 30 39 40 48 42 41 37 52 70 80 77 67 74 93 94 100 99 96 70 76 39 47 46 44 38 38 31 23
12 11 6 4 5 10 19 28 27 29 25 27 27 22 25 33 32 39 43 46 66 77 49 41 48 62 73 82 74 87 97 94 94 97 92 70 87 48 44 48 43 42 42 37 27
23 13 10 5 4 6 14 28 29 28 26 31 33 29 29 45 40 45 46 44 58 70 73 76 51 64 57 75 86 98 99 99 98 96 87 76 62 58 55 51 44 36 37 32 29
34 24 15 9 5 4 11 31 27 32 34 36 39 31 35 32 35 44 45 50 60 58 51 60 62 51 58 76 83 98 96 97 98 89 97 65 58 58 45 44 46 32 36 32 29
11 39 26 14 8 5 8 22 20 31 38 44 44 40 38 34 37 43 37 46 54 54 53 57 68 47 69 65 69 91 100 92 93 99 90 67 66 58 50 45 40 44 44 50 52
38 19 29 22 15 10 10 11 14 22 41 45 47 53 48 34 42 46 34 44 52 53 60 53 74 43 55 49 59 82 83 96 98 96 95 92 62 57 60 54 41 42 44 49 64
68 53 40 32 22 15 13 18 19 28 28 38 42 42 30 32 31 34 35 48 52 51 46 49 67 82 39 49 60 67 73 72 95 87 92 97 74 64 58 50 48 48 53 51 47
91 58 39 50 39 21 18 21 22 20 27 27 37 45 42 41 37 31 38 35 34 44 45 49 68 65 36 54 58 67 62 66 69 99 98 97 69 65 61 62 58 52 50 47 48
30 68 60 58 53 54 32 20 16 24 28 25 44 47 51 49 40 28 31 44 37 36 45 55 53 50 47 36 41 48 50 62 70 88 81 84 77 72 80 81 68 57 51 47 49
41 98 69 98 70 67 73 58 33 65 72 49 57 47 58 56 47 36 45 51 50 43 42 55 45 43 47 44 45 40 48 49 50 62 87 68 71 66 82 85 66 63 50 48 58
54 69 96 100 100 90 87 67 42 42 56 42 38 34 64 50 40 35 36 33 40 41 44 48 50 49 28 31 44 48 40 38 40 49 58 58 62 70 63 65 66 68 58 60 74
19 94 99 100 100 100 92 89 84 70 40 68 71 75 60 52 54 61 46 37 36 37 50 60 62 62 41 34 40 37 28 33 37 46 53 58 55 54 57 65 75 69 68 74 73
Wind_Speed
14 13 11 10 10 12 13 14 14 15 16 17 19 20 20 22 24 20 23 25 25 25 26 23 20 19 17 13 14 18 24 27 23 17 23 21 32 28 25 16 23 29 29 23 25
15 13 13 13 13 14 15 17 18 17 17 18 19 20 22 23 24 19 25 26 26 27 26 27 23 18 14 12 13 16 24 25 20 17 15 19 27 32 29 19 17 36 24 24 26
15 15 14 14 14 15 16 17 18 18 17 18 19 20 20 22 20 23 26 27 28 26 26 25 22 20 16 10 11 16 22 20 22 20 24 21 26 27 24 20 22 20 25 27 25
15 15 16 15 15 16 16 17 18 17 17 18 19 17 19 20 18 24 27 27 27 26 24 21 18 15 12 10 6 16 19 17 18 20 26 23 27 30 22 25 23 13 14 24 29
15 16 17 17 16 15 16 17 19 18 16 17 19 16 16 17 21 25 25 27 29 27 24 19 16 11 9 10 9 15 16 18 18 24 26 27 28 33 32 23 22 13 16 18 26
16 18 18 18 18 17 17 17 19 19 17 17 18 16 16 15 20 23 25 27 29 26 22 18 15 10 11 11 12 15 17 19 17 21 23 28 32 34 44 28 32 21 11 16 22
16 17 18 20 20 19 18 18 19 20 19 18 19 18 14 14 18 22 24 26 27 26 21 17 14 11 11 10 11 13 20 16 14 18 19 17 24 30 34 39 36 36 23 20 24
15 17 18 19 19 20 19 19 19 19 19 20 18 19 14 16 18 20 22 24 25 26 22 16 13 10 10 13 17 17 18 22 15 14 15 15 34 17 14 27 41 42 35 31 21
16 16 17 18 19 19 20 20 19 20 19 18 20 16 9 17 17 18 20 22 23 24 24 17 12 11 9 11 13 12 14 20 19 14 18 8 25 21 11 15 26 43 47 41 30
15 16 17 18 19 19 19 20 20 19 19 20 13 13 14 16 18 19 18 19 20 21 21 20 18 15 10 11 10 14 20 21 25 21 19 26 24 23 18 20 24 27 37 40 39
16 16 16 18 19 19 19 19 22 20 20 18 17 7 14 17 19 20 16 20 19 22 22 19 19 12 9 9 17 19 22 25 27 22 24 29 33 30 25 23 29 27 28 27 44
15 17 16 17 18 19 19 20 20 22 23 14 4 10 14 20 23 16 20 21 20 20 19 19 15 13 11 13 17 22 20 26 29 21 24 27 34 30 28 30 30 32 33 29 28
18 17 17 16 17 18 19 20 21 23 19 3 7 11 15 24 24 19 22 22 21 20 19 21 13 16 14 16 18 20 23 27 25 26 24 26 36 28 22 26 28 34 37 33 31
20 19 17 17 16 17 18 19 21 23 6 3 11 7 18 25 14 23 19 20 20 20 23 12 17 19 17 16 11 22 19 20 19 23 9 18 11 34 23 18 17 24 34 36 36
22 20 20 17 17 17 17 19 20 17 4 11 11 16 22 23 19 16 20 20 20 15 16 16 18 16 13 13 10 17 20 23 29 27 24 23 10 34 23 14 10 11 21 32 31
22 22 21 18 18 16 17 18 19 7 3 11 11 20 25 19 17 18 20 22 15 14 12 20 11 10 13 14 12 16 21 23 12 12 6 15 13 15 4 8 16 10 6 15 27
22 22 22 20 17 16 16 16 9 3 10 8 18 24 21 15 19 19 23 20 13 13 17 16 9 12 11 18 16 11 13 4 2 1 4 12 8 15 13 13 11 4 10 13 16
22 21 21 22 20 17 16 14 6 6 11 14 21 22 12 11 14 19 22 21 11 11 18 12 10 12 19 17 15 13 4 2 3 2 5 7 6 6 8 7 10 11 12 15 14
24 22 20 21 21 20 17 10 6 8 9 16 21 13 7 13 14 15 19 12 11 14 8 9 8 15 19 15 16 9 6 12 7 9 4 4 3 1 10 12 8 8 9 14 16
23 24 21 20 21 22 20 19 15 15 16 17 16 10 14 22 14 10 12 10 11 16 14 9 15 8 12 17 9 7 8 3 4 3 4 5 3 3 15 19 19 9 4 12 18
23 22 21 21 21 22 23 23 20 17 12 11 17 23 22 18 11 15 7 12 13 13 20 18 10 12 19 11 13 8 6 5 7 8 2 3 4 6 13 18 22 10 9 12 16
25 20 17 20 18 21 23 20 18 15 17 19 20 15 12 15 17 12 7 7 17 21 20 12 11 18 26 18 15 18 12 9 5 5 11 7 7 6 16 17 20 7 10 13 17
23 26 23 24 23 24 24 22 22 22 16 16 17 16 17 18 12 10 12 13 17 14 14 17 7 12 11 6 9 10 10 15 15 16 11 3 5 15 15 19 19 7 8 12 14
22 13 18 19 22 27 27 27 26 25 27 20 10 12 16 22 17 12 16 14 18 19 17 16 16 17 17 28 26 34 31 26 22 18 14 15 18 14 15 23 23 8 6 10 12
23 21 21 22 10 8 12 17 15 13 14 15 16 14 17 21 22 16 12 14 22 26 19 15 22 22 26 31 24 20 20 16 20 25 21 24 21 12 20 21 21 9 6 9 12
22 23 24 27 27 26 24 27 25 15 19 23 25 18 17 20 18 22 23 22 25 24 21 22 16 26 32 8 14 21 11 11 11 12 20 22 22 8 12 14 14 4 6 10 15
30 27 32 31 30 30 30 26 24 23 24 14 13 19 19 17 19 22 24 25 26 30 30 24 18 18 11 20 16 3 13 8 6 4 6 11 8 6 6 8 4 2 8 13 16
Wind_Direction
356 351 345 336 333 335 339 341 344 344 348 354 354 350 355 353 355 351 347 347 344 340 336 332 323 311 302 283 258 251 245 252 260 280 270 252 238 219 226 256 244 225 232 237 239
2 355 346 339 336 336 337 341 343 342 342 349 354 355 357 352 353 350 349 348 343 337 332 330 322 313 297 281 263 246 254 260 265 242 252 235 236 239 238 224 217 226 221 223 225
5 0 352 343 340 339 338 340 344 340 337 345 356 356 356 355 357 353 354 352 346 339 329 323 314 309 306 278 258 263 269 272 265 251 247 269 236 241 246 224 219 219 222 212 217
7 3 0 353 345 342 339 339 340 341 336 340 351 356 356 358 4 356 358 352 347 343 335 321 305 299 299 292 255 265 270 281 299 256 245 266 247 237 231 213 205 226 218 221 220
5 3 1 358 352 345 341 340 340 340 336 336 341 349 355 356 356 358 357 354 353 352 344 330 316 316 300 293 270 254 270 273 275 276 255 264 249 241 231 218 206 227 231 221 225
2 0 359 357 355 350 345 342 341 340 336 331 333 340 345 353 353 356 359 355 357 358 349 337 332 324 298 290 280 281 263 264 266 277 273 263 260 239 230 226 209 215 223 223 219
358 359 359 357 354 352 348 344 343 340 335 331 328 336 337 347 350 356 357 357 356 359 350 339 331 323 298 291 291 294 283 283 298 318 295 281 269 249 242 243 229 223 224 233 216
350 353 356 356 353 353 350 347 345 342 338 333 331 331 331 344 347 355 355 356 355 355 350 332 324 319 302 289 295 303 289 295 301 309 297 269 265 276 274 244 240 229 225 244 231
340 345 349 353 352 352 350 349 349 345 341 336 331 329 333 340 344 346 349 355 354 355 359 347 327 323 313 308 314 302 286 295 308 291 289 238 271 278 279 257 237 234 239 237 226
329 334 340 345 348 349 348 348 349 350 345 336 333 335 335 343 341 341 339 344 350 347 349 353 349 323 297 297 287 299 304 298 298 302 278 281 266 268 271 242 244 235 229 231 225
314 322 330 336 341 344 346 344 346 352 347 333 322 341 336 344 345 343 330 336 341 341 347 344 338 330 293 283 297 296 296 291 293 309 295 281 277 274 267 258 232 228 224 232 223
299 309 320 328 334 337 342 342 345 341 343 337 19 343 350 345 342 343 337 335 335 334 331 330 328 338 303 292 275 285 285 288 297 306 302 297 283 279 260 267 250 225 217 220 222
294 300 308 317 327 331 336 338 340 341 344 62 4 344 350 342 339 341 338 334 332 332 328 323 324 321 303 299 292 284 289 293 292 302 297 294 288 288 274 271 261 242 223 214 214
289 293 297 308 315 323 328 333 339 339 346 52 342 344 341 343 334 334 338 335 329 323 329 330 325 321 314 298 299 282 289 284 291 304 306 310 292 290 280 296 270 276 239 221 215
283 287 291 297 304 315 322 328 337 339 8 340 343 338 339 337 329 341 338 334 328 326 323 346 331 320 330 330 284 294 288 281 288 300 289 292 257 282 303 337 286 271 239 227 213
278 282 287 291 297 305 314 322 331 331 291 323 331 336 336 347 348 341 342 337 329 336 333 342 326 326 333 342 321 301 300 306 309 275 259 288 226 301 297 357 4 265 225 227 210
271 276 281 285 288 295 304 316 321 238 322 318 329 331 335 344 345 344 345 343 335 328 338 346 333 343 336 340 343 326 334 323 356 227 259 335 190 262 324 303 319 315 261 222 211
267 270 275 281 284 288 296 307 269 282 310 319 325 325 326 343 333 339 335 337 337 321 319 325 328 327 331 332 325 330 346 308 302 302 286 249 251 349 346 337 319 307 262 232 211
265 266 269 274 280 283 286 286 269 297 307 313 326 321 326 331 327 323 330 328 316 330 325 314 296 311 321 319 326 327 322 321 264 286 284 255 292 41 31 13 346 298 253 217 197
264 265 264 265 269 275 277 272 273 286 296 306 314 305 307 320 315 315 318 304 319 318 327 312 292 307 316 319 332 319 314 322 289 285 294 302 139 316 1 353 344 326 227 181 187
284 271 268 264 264 266 266 271 281 286 291 300 305 303 305 312 297 304 292 300 303 315 317 318 276 289 307 308 307 287 313 275 280 259 243 308 269 359 351 341 338 294 252 211 209
276 282 268 266 264 260 264 275 276 277 285 291 299 304 302 309 308 301 281 271 297 308 311 305 286 283 308 293 285 287 284 289 240 285 309 268 273 339 334 332 334 278 244 230 216
262 274 269 260 263 264 268 270 276 283 288 294 292 294 305 305 309 294 292 298 305 309 315 311 276 305 314 305 288 268 282 291 294 271 264 254 277 326 335 332 339 277 239 231 228
260 262 269 269 268 266 270 273 271 275 285 292 272 316 321 311 308 286 299 304 312 320 315 304 278 266 262 291 293 293 294 288 277 258 256 259 301 305 326 332 339 295 234 222 213
253 255 256 263 253 261 266 262 264 251 264 276 270 305 315 302 306 311 316 302 304 312 307 295 289 303 299 305 304 299 308 302 270 251 249 271 271 261 316 314 323 294 214 199 187
246 251 251 256 266 265 263 267 264 255 268 278 281 296 288 292 305 302 299 298 299 300 299 302 292 310 316 338 326 316 323 306 294 269 260 271 286 292 282 300 309 280 186 166 161
239 235 248 255 256 259 259 267 275 276 272 270 290 282 275 286 295 304 301 297 292 287 283 288 292 312 293 329 323 353 356 1 5 337 298 282 301 303 304 289 278 183 160 161 141